Regional Weather Roundup
Issued by NWS

Home | Current Version | Previous Version | Text Only | Print | Product List | Glossary Off
Versions: 1 2 3 4 5 6 7 8 9 10 11 12 13 14 15 16 17 18 19 20 21 22 23 24 25 26 27

000
ASUS45 KTFX 231110
RWRMT
MONTANA REGIONAL WEATHER ROUNDUP
NATIONAL WEATHER SERVICE GREAT FALLS MT
500 AM MDT SUN APR 23 2017

NOTE: "FAIR" INDICATES FEW OR NO CLOUDS BELOW 12000 FEET WITH NO
SIGNIFICANT WEATHER AND/OR OBSTRUCTIONS TO VISIBILITY.

MTZ001>007-043-231200-
WEST OF THE DIVIDE

CITY           SKY/WX    TMP DP  RH WIND       PRES   REMARKS
KALISPELL      CLOUDY    45  40  82 CALM      29.84S
MISSOULA       CLOUDY    49  37  63 N10       29.84F
BUTTE          CLOUDY    38  28  67 CALM      29.83F
MULLAN PASS    CLOUDY    34  30  85 NW3       29.85F
ANACONDA         N/A     39  27  60 S6        29.81F
DEER LODGE       N/A     39  30  70 CALM      29.83F
EUREKA           N/A     41  37  87 CALM      29.83S
HAMILTON         N/A     48  37  66 E7        29.84S
LIBBY            N/A     39  37  93 CALM      29.85S
PLAINS           N/A     48  38  68 S2        29.88S
RONAN            N/A     46  38  74 N2        29.91S
$$

MTZ008-052>055-231200-
SOUTHWEST MONTANA

CITY           SKY/WX    TMP DP  RH WIND       PRES   REMARKS
BOZEMAN        PTCLDY    42  33  70 SE6       29.82F
DILLON         CLOUDY    41  31  67 SW7       29.82F
W YELLOWSTONE  CLOUDY    28  27  93 CALM      29.96S
ENNIS          MOCLDY    43  28  56 S14       29.90S
THREE FORKS      N/A     44  -8  11 CALM      29.83F
TWIN BRIDGES     N/A     39  28  65 S6        29.84S
$$

MTZ009-010-012-014-046-048-049-054-231200-
EAST SLOPES AND CENTRAL MONTANA

CITY           SKY/WX    TMP DP  RH WIND       PRES   REMARKS
CUT BANK       CLOUDY    39  39 100 SE5       29.82F FOG
GREAT FALLS    CLOUDY    39  38  96 W5        29.80F
MALMSTROM AFB  CLOUDY    42  40  94 NW3       29.80F
HELENA         PTCLDY    45  34  65 CALM      29.80F
AUGUSTA        MOCLDY    37  37  97 CALM      29.80F
BOWMANS CRNR   MOCLDY    38  36  92 CALM      29.79F
CHOTEAU          N/A     37  37 100 N5        29.83F FOG
FAIRFIELD      MOCLDY    36  35  94 W3        29.80F FOG
POWER          FOG       37  37  99 N6        29.79F VSB 3/8
RAYNESFORD     CLOUDY    42  35  76 CALM      29.80F
ULM            MOCLDY    40  38  95 CALM      29.80F
$$

MTZ011-013-016-021-045-047-050-051-231200-
NORTH CENTRAL MONTANA

CITY           SKY/WX    TMP DP  RH WIND       PRES   REMARKS
HAVRE          CLOUDY    42  39  89 E21G28    29.83F
LEWISTOWN      PTCLDY    40  34  79 SE6       29.81F
N BAR RANCH      N/A     39  34  81 NW3       29.84F
CHINOOK          N/A     41  37  87 E14G21    29.86F
DENTON           N/A     38  37  97 MISG      29.77F
FORT BENTON      N/A     45  39  81 MISG      29.81F
GEYSER           N/A     43  33  69 SW10      29.79F
GRASS RANGE      N/A     38  36  92 SW7       29.78F
JUDITH GAP     MOCLDY    41  35  79 S13       29.82F
STANFORD         N/A     43  31  63 CALM      29.80F
WINIFRED       DRZL/FOG  40  40  99 E13       29.80F VSB 5/8
$$

MTZ017>020-022>027-061-062-231200-
NORTHEAST MONTANA

CITY           SKY/WX    TMP DP  RH WIND       PRES   REMARKS
GLASGOW        CLOUDY    38  33  82 E25G35    29.90F WCI  27
JORDAN           N/A     41  38  89 E9        29.86F
SIDNEY         CLOUDY    35  30  82 E10G21    30.01F WCI  27
WOLF POINT     CLOUDY    38  31  76 E21G30    29.98F WCI  28
MALTA          CLOUDY    39  36  87 E14       29.90F WCI  31
PLENTYWOOD       N/A     32  30  93 E17G24    30.05S WCI  21
POPLAR           N/A     36  30  80 E18G24    30.00S WCI  25
SCOBEY           N/A     32  25  76 E22       29.95F WCI  19
$$

MTZ028>42-056>058-231200-
SOUTHCENTRAL AND SOUTHEAST MONTANA

CITY           SKY/WX    TMP DP  RH WIND       PRES   REMARKS
BAKER          CLOUDY    36  34  92 E23       29.92R FOG     WCI  24
BILLINGS       CLOUDY    47  37  68 CALM      29.82F
LIVINGSTON     PTCLDY    40  34  79 NE3       29.82F
MILES CITY     CLOUDY    43  39  86 NE15      29.87S
BIG TIMBER     CLEAR     41  36  81 CALM      29.85F
EKALAKA          N/A     39  35  85 SE7       29.86F
LAUREL           N/A     44  35  70 CALM      29.82F
ROUNDUP          N/A     42  36  79 NW2       29.75F
$$

REGIONAL REPORTS...DAKOTAS

CITY           SKY/WX    TMP DP  RH WIND       PRES   REMARKS
WILLISTON      CLOUDY    34  27  75 E12G21    30.07F WCI  25
MINOT          CLOUDY    30  19  63 E17       30.15S WCI  18
DICKINSON      CLOUDY    32  30  92 E21       29.96F WCI  20
BEACH          CLOUDY    32  32 100 E25       29.98F WCI  19
TIOGA          CLOUDY    28  28 100 E22G29    30.09F WCI  15
WATFORD CITY     N/A     32  32 100 E15       30.04S WCI  22
BISMARCK       CLOUDY    34  28  79 E22G28    30.08S WCI  22
GRAND FORKS    CLOUDY    32  22  66 NE16      30.23F WCI  21
FARGO          CLOUDY    34  32  92 N14       30.17S WCI  25
BUFFALO SD       N/A     41  40  96 E21       29.82F
RAPID CITY     PTCLDY    45  33  63 S14       29.89F
$$

REGIONAL REPORTS...WYOMING/IDAHO/WASHINGTON

CITY           SKY/WX    TMP DP  RH WIND       PRES   REMARKS
GILLETTE       PTCLDY    42  34  73 W7        29.86S
SHERIDAN       MOCLDY    34  31  88 CALM      29.84F
BUFFALO WY     CLOUDY    43  31  62 W10       29.86F
CODY           CLOUDY    43  34  70 CALM      29.89F
YELLOWSTONE LA   N/A     25  23  92 CALM      29.99F
IDAHO FALLS    CLOUDY    44  37  76 N5        29.93S
SALMON         CLOUDY   N/A N/A N/A MISG        N/A
BOISE          PTCLDY    52  39  61 S3        29.81S
SPOKANE        CLOUDY    45  39  79 S7        29.86S
$$

REGIONAL REPORTS...ALBERTA

CITY           SKY/WX    TMP DP  RH WIND       PRES   REMARKS
EDMONTON       LGT SNOW  28  27  93 E16       29.97F WCI  17
CALGARY        DRZL/FOG  34  34 100 SE6       29.83F VSB 5/8 WCI  29
LETHBRIDGE     CLOUDY    39  37  93 SW7       29.80F
MEDICINE HAT   MOCLDY    39  37  93 E12G17    29.85F WCI  32
WATERTON GATE    N/A     37  34  87 S7          N/A
CARDSTON         N/A     39  37  93 SE2         N/A
MILK RIVER       N/A     41  39  93 W7          N/A
$$

REGIONAL REPORTS...SASKATCHEWAN

CITY           SKY/WX    TMP DP  RH WIND       PRES   REMARKS
SWIFT CURRENT  CLOUDY    34  32  93 SE22G31   29.94F WCI  22
REGINA         CLOUDY    32  25  74 SE20G29   30.11F WCI  20
SASKATOON      MOCLDY    32  21  64 E12       30.13F WCI  23
VAL MARIE        N/A     36  34  93 E17         N/A  WCI  25
ASSINIBOIA       N/A     30  28  93 E12         N/A  WCI  21
$$




USA.gov is the U.S. government's official web portal to all federal, state and local government web resources and services.